Location: Deer Lodge Site
(39.6809°N, 119.9392°W)
Time: 20:53:32
(UTC-07:00)

Amateur Radio Satellites - All Passes

Search period start: 19 September 2014 20:23
Search period end: 20 September 2014 20:23
Location: Deer Lodge Site, 39.6809°N, 119.9392°W

Satellite Date Start Highest point End Downlink Frequencies (MHz)
Time Altitude Azimuth
STRAND 1 19 Sep 20:40:18 20:44:59 37° 291° (WNW) 20:49:40 ?
Sapphire 19 Sep 20:49:25 20:54:04 28° 51° (NE) 20:58:41 437.095 MHz 1200 baud AX-25 AFSK
PCSat 19 Sep 21:16:06 21:21:21 48° 56° (ENE) 21:26:34 145.825 MHz
KITSAT 1 19 Sep 21:21:18 21:28:27 34° 314° (NW) 21:35:39 435.175 FM
FUNcube-1 19 Sep 21:26:04 21:28:46 16° 64° (ENE) 21:31:31 145.950 - 145.970 MHz USB
Oscar 11 19 Sep 21:34:01 21:38:11 47° 73° (ENE) 21:42:23 145.825 FM, Beacon 2401.500 USB
HO-68 19 Sep 21:44:11 21:51:08 54° 259° (WSW) 21:58:07 435.675 MHz FM
UKube-1 19 Sep 21:50:48 21:55:07 77° 257° (WSW) 21:59:28 145.840 MHz, 145.915 MHz
SO-50 19 Sep 22:17:02 22:21:21 51° 117° (ESE) 22:25:46 436.795 FM
Sapphire 19 Sep 22:32:31 22:37:38 43° 249° (WSW) 22:42:42 437.095 MHz 1200 baud AX-25 AFSK
PCSat 19 Sep 23:00:15 23:04:25 23° 253° (WSW) 23:08:34 145.825 MHz
FUNcube-1 19 Sep 23:00:29 23:04:43 48° 261° (W) 23:09:05 145.950 - 145.970 MHz USB
Oscar 11 19 Sep 23:12:09 23:14:36 15° 268° (W) 23:17:04 145.825 FM, Beacon 2401.500 USB
Oscar 10/S400 19 Sep 23:23:26 00:07:19 57° 202° (SSW) 08:36:36 145.825 - 145.975 CW/USB, Beacon 145.810 USB
KITSAT 1 19 Sep 23:24:40 23:26:54 11° 341° (NNW) 23:29:08 435.175 FM
UOSAT-12 19 Sep 23:53:20 23:57:38 40° 115° (ESE) 00:02:01 437.025 FM, 437.400 FM
SO-50 19 Sep 23:58:50 00:02:12 20° 316° (NW) 00:05:38 436.795 FM
Saudisat 1A 20 Sep 01:10:47 01:14:05 20° 45° (NE) 01:17:22 436.775 MHz
UOSAT-12 20 Sep 01:34:04 01:37:55 25° 313° (NW) 01:41:50 437.025 FM, 437.400 FM
ISS 20 Sep 01:45:09 01:47:27 17° 131° (SE) 01:49:44 145.800 FM
Oscar 19 20 Sep 01:49:22 01:53:44 27° 95° (E) 01:58:03 437.125 CW, 437.150 USB
AO-27 20 Sep 02:09:04 02:12:31 18° 92° (E) 02:15:58 436.795 MHz FM
RS-15 20 Sep 02:25:55 02:31:01 14° 97° (E) 02:36:04 29.354 - 29.394 USB, Beacon 29.352 USB
Oscar 16 20 Sep 02:27:42 02:32:52 66° 102° (ESE) 02:37:58 437.025 USB, Beacon 2401.1428
PANSAT 20 Sep 02:28:54 02:30:58 14° 173° (S) 02:33:01 not established
JAS-1B 20 Sep 02:36:18 02:41:33 37° 98° (E) 02:46:49 435.800 - 435.900 CW/SSB
AO-Echo 20 Sep 02:37:20 02:41:53 38° 98° (E) 02:46:31 ?
Saudisat 1A 20 Sep 02:49:39 02:53:54 48° 243° (WSW) 02:58:08 436.775 MHz
Gurwin Techsat 1B 20 Sep 03:03:21 03:07:53 28° 95° (E) 03:12:23 435.225 FM
ITAMSAT 1 20 Sep 03:11:58 03:17:12 71° 102° (ESE) 03:22:24 435.822 SSB
Uribyol 2 20 Sep 03:16:03 03:21:19 82° 103° (ESE) 03:26:32 436.500 FM
KITSAT 1 20 Sep 03:19:07 03:25:53 28° 42° (NE) 03:32:36 435.175 FM
ISS 20 Sep 03:20:39 03:23:53 49° 327° (NNW) 03:27:08 145.800 FM
Oscar 19 20 Sep 03:28:26 03:33:05 35° 291° (WNW) 03:37:41 437.125 CW, 437.150 USB
AO-7 20 Sep 03:31:55 03:33:32 11° 87° (E) 03:35:08 29.400 - 29.500 MHz
TMSAT-1 20 Sep 03:39:42 03:44:47 45° 99° (E) 03:49:50 436.925 FM
AO-27 20 Sep 03:47:16 03:52:20 54° 288° (WNW) 03:57:24 436.795 MHz FM
OPAL 20 Sep 03:56:18 04:00:39 28° 64° (ENE) 04:05:03 ?
PANSAT 20 Sep 04:08:19 04:10:26 14° 186° (S) 04:12:34 not established
Oscar 16 20 Sep 04:08:40 04:11:38 16° 298° (WNW) 04:14:35 437.025 USB, Beacon 2401.1428
AO-Echo 20 Sep 04:16:39 04:20:26 23° 293° (WNW) 04:24:17 ?
JAS-1B 20 Sep 04:27:24 04:32:07 27° 296° (WNW) 04:36:48 435.800 - 435.900 CW/SSB
RS-15 20 Sep 04:30:19 04:41:20 74° 116° (ESE) 04:52:11 29.354 - 29.394 USB, Beacon 29.352 USB
Gurwin Techsat 1B 20 Sep 04:43:04 04:47:52 35° 291° (WNW) 04:52:38 435.225 FM
ITAMSAT 1 20 Sep 04:53:14 04:56:04 15° 299° (WNW) 04:58:54 435.822 SSB
Uribyol 2 20 Sep 04:57:48 05:00:03 13° 300° (WNW) 05:02:19 436.500 FM
ISS 20 Sep 04:59:24 05:01:14 14° 345° (NNW) 05:03:04 145.800 FM
KITSAT 1 20 Sep 05:14:00 05:22:04 76° 244° (WSW) 05:30:04 435.175 FM
AO-7 20 Sep 05:19:25 05:27:42 68° 105° (ESE) 05:35:55 29.400 - 29.500 MHz
TMSAT-1 20 Sep 05:20:20 05:24:23 23° 295° (WNW) 05:28:25 436.925 FM
Uosat F 20 Sep 05:26:15 05:31:18 80° 103° (ESE) 05:36:20 435.120 FM
OPAL 20 Sep 05:34:38 05:39:22 36° 261° (W) 05:44:09 ?
Hamsat 20 Sep 06:11:36 06:15:08 25° 95° (E) 06:18:37 145.90 MHz
JAS-2 20 Sep 06:16:12 06:21:58 41° 99° (E) 06:28:24 435.800 - 435.900 CW/SSB, 435.910 FM
STRAND 1 20 Sep 06:16:40 06:21:12 34° 68° (ENE) 06:25:46 ?
ISS 20 Sep 06:38:01 06:39:06 11° 6° (N) 06:40:10 145.800 FM
RS-15 20 Sep 06:44:50 06:54:38 36° 321° (NW) 07:04:28 29.354 - 29.394 USB, Beacon 29.352 USB
SO-50 20 Sep 06:49:16 06:53:47 39° 52° (NE) 06:58:20 436.795 FM
MaSat-1 20 Sep 07:03:44 07:04:31 10° 99° (E) 07:05:19 437.345 MHz
Uosat F 20 Sep 07:07:21 07:09:24 13° 300° (WNW) 07:11:27 435.120 FM
KITSAT 1 20 Sep 07:12:50 07:16:04 13° 261° (W) 07:19:19 435.175 FM
AO-7 20 Sep 07:13:11 07:19:49 28° 303° (WNW) 07:26:28 29.400 - 29.500 MHz
SO-67 20 Sep 07:16:45 07:18:56 16° 93° (E) 07:21:06 435.3500 MHz FM
Hamsat 20 Sep 07:47:30 07:51:01 25° 291° (WNW) 07:54:28 145.90 MHz
STRAND 1 20 Sep 07:56:07 08:00:24 27° 264° (W) 08:04:42 ?
JAS-2 20 Sep 08:01:37 08:06:55 33° 292° (WNW) 08:12:46 435.800 - 435.900 CW/SSB, 435.910 FM
ISS 20 Sep 08:13:53 08:16:44 25° 26° (NNE) 08:19:33 145.800 FM
UOSAT-12 20 Sep 08:23:44 08:27:55 30° 49° (NE) 08:32:02 437.025 FM, 437.400 FM
SO-50 20 Sep 08:30:13 08:34:10 25° 248° (WSW) 08:38:08 436.795 FM
MaSat-1 20 Sep 08:35:32 08:40:33 89° 293° (WNW) 08:45:31 437.345 MHz
SO-67 20 Sep 08:49:03 08:51:58 26° 288° (WNW) 08:54:52 435.3500 MHz FM
RS-15 20 Sep 09:04:47 09:11:39 18° 355° (N) 09:18:36 29.354 - 29.394 USB, Beacon 29.352 USB
HO-68 20 Sep 09:13:00 09:19:14 31° 96° (E) 09:25:25 435.675 MHz FM
UKube-1 20 Sep 09:40:45 09:43:53 19° 94° (E) 09:46:59 145.840 MHz, 145.915 MHz
ISS 20 Sep 09:50:22 09:53:33 43° 223° (SW) 09:56:43 145.800 FM
UOSAT-12 20 Sep 10:03:51 10:08:02 32° 246° (WSW) 10:12:10 437.025 FM, 437.400 FM
MaSat-1 20 Sep 10:15:32 10:17:56 13° 311° (NW) 10:20:18 437.345 MHz
FUNcube-1 20 Sep 10:50:29 10:54:45 36° 97° (E) 10:58:56 145.950 - 145.970 MHz USB
Oscar 11 20 Sep 10:58:21 11:02:42 75° 284° (WNW) 11:07:00 145.825 FM, Beacon 2401.500 USB
HO-68 20 Sep 11:00:16 11:07:06 49° 293° (WNW) 11:13:55 435.675 MHz FM
UKube-1 20 Sep 11:16:10 11:20:10 36° 290° (WNW) 11:24:09 145.840 MHz, 145.915 MHz
RS-15 20 Sep 11:20:21 11:29:26 28° 31° (NNE) 11:38:42 29.354 - 29.394 USB, Beacon 29.352 USB
Sapphire 20 Sep 11:30:50 11:35:20 28° 108° (ESE) 11:39:52 437.095 MHz 1200 baud AX-25 AFSK
PCSat 20 Sep 11:56:53 12:02:06 52° 113° (ESE) 12:07:21 145.825 MHz
Oscar 16 20 Sep 12:08:56 12:10:24 11° 59° (ENE) 12:11:52 437.025 USB, Beacon 2401.1428
FUNcube-1 20 Sep 12:27:20 12:30:53 22° 293° (WNW) 12:34:24 145.950 - 145.970 MHz USB
ITAMSAT 1 20 Sep 12:53:36 12:55:38 12° 59° (ENE) 12:57:41 435.822 SSB
Uribyol 2 20 Sep 12:56:50 12:59:31 14° 61° (ENE) 13:02:12 436.500 FM
Oscar 19 20 Sep 13:05:19 13:10:02 37° 69° (ENE) 13:14:47 437.125 CW, 437.150 USB
Sapphire 20 Sep 13:13:29 13:18:33 40° 305° (NW) 13:23:40 437.095 MHz 1200 baud AX-25 AFSK
JAS-1B 20 Sep 13:19:02 13:26:38 39° 68° (ENE) 13:33:08 435.800 - 435.900 CW/SSB
AO-27 20 Sep 13:26:19 13:30:31 26° 66° (ENE) 13:34:43 436.795 MHz FM
RS-15 20 Sep 13:32:35 13:43:46 81° 58° (ENE) 13:55:24 29.354 - 29.394 USB, Beacon 29.352 USB
PCSat 20 Sep 13:41:27 13:45:48 24° 311° (NW) 13:50:10 145.825 MHz
Oscar 16 20 Sep 13:43:44 13:48:56 87° 76° (ENE) 13:54:10 437.025 USB, Beacon 2401.1428
AO-Echo 20 Sep 13:49:47 13:54:17 44° 72° (ENE) 13:58:45 ?
Gurwin Techsat 1B 20 Sep 14:23:33 14:28:29 41° 70° (ENE) 14:33:26 435.225 FM
AO-7 20 Sep 14:28:37 14:33:54 19° 51° (NE) 14:39:09 29.400 - 29.500 MHz
ITAMSAT 1 20 Sep 14:29:13 14:34:23 84° 256° (WSW) 14:39:36 435.822 SSB
Uribyol 2 20 Sep 14:33:12 14:38:20 73° 257° (WSW) 14:43:32 436.500 FM
Oscar 19 20 Sep 14:45:08 14:49:25 26° 265° (W) 14:53:44 437.125 CW, 437.150 USB
TMSAT-1 20 Sep 14:59:35 15:04:48 65° 73° (ENE) 15:10:03 436.925 FM
Uosat F 20 Sep 15:03:43 15:05:37 12° 60° (ENE) 15:07:31 435.120 FM
AO-27 20 Sep 15:05:03 15:09:49 38° 262° (W) 15:14:38 436.795 MHz FM
JAS-1B 20 Sep 15:08:53 15:17:05 44° 260° (W) 15:24:04 435.800 - 435.900 CW/SSB
AO-Echo 20 Sep 15:30:08 15:33:16 17° 267° (W) 15:36:24 ?
RS-15 20 Sep 15:46:23 15:54:56 26° 257° (WSW) 16:03:48 29.354 - 29.394 USB, Beacon 29.352 USB
Gurwin Techsat 1B 20 Sep 16:04:21 16:08:34 24° 266° (W) 16:12:49 435.225 FM
AO-7 20 Sep 16:17:09 16:25:28 83° 71° (ENE) 16:33:48 29.400 - 29.500 MHz
JAS-2 20 Sep 16:32:06 16:34:07 12° 60° (ENE) 16:36:09 435.800 - 435.900 CW/SSB, 435.910 FM
Uosat F 20 Sep 16:38:42 16:43:42 81° 256° (WSW) 16:48:43 435.120 FM
TMSAT-1 20 Sep 16:42:17 16:45:10 15° 269° (W) 16:48:04 436.925 FM
MaSat-1 20 Sep 16:54:40 16:56:33 13° 48° (NE) 16:58:19 437.345 MHz
Saudisat 1A 20 Sep 16:55:00 16:59:15 52° 117° (ESE) 17:03:33 436.775 MHz
Hamsat 20 Sep 17:04:43 17:07:41 18° 67° (ENE) 17:10:39 145.90 MHz
OPAL 20 Sep 17:44:55 17:50:03 64° 104° (ESE) 17:55:05 ?
KITSAT 1 20 Sep 17:49:47 17:54:23 17° 101° (E) 17:58:59 435.175 FM
JAS-2 20 Sep 18:13:18 18:18:34 77° 257° (WSW) 18:23:46 435.800 - 435.900 CW/SSB, 435.910 FM
AO-7 20 Sep 18:13:29 18:19:04 20° 268° (W) 18:24:42 29.400 - 29.500 MHz
STRAND 1 20 Sep 18:30:08 18:31:54 12° 90° (E) 18:33:40 ?
MaSat-1 20 Sep 18:30:09 18:33:38 40° 251° (WSW) 18:36:38 437.345 MHz
Saudisat 1A 20 Sep 18:35:58 18:39:07 19° 315° (NW) 18:42:18 436.775 MHz
Hamsat 20 Sep 18:39:15 18:43:20 39° 262° (W) 18:47:26 145.90 MHz
SO-67 20 Sep 19:20:21 19:23:48 84° 79° (E) 19:27:16 435.3500 MHz FM
OPAL 20 Sep 19:25:14 19:28:22 17° 301° (WNW) 19:31:28 ?
KITSAT 1 20 Sep 19:40:31 19:48:37 87° 118° (ESE) 19:56:45 435.175 FM
HO-68 20 Sep 19:41:55 19:47:10 23° 58° (ENE) 19:52:25 435.675 MHz FM
STRAND 1 20 Sep 20:06:29 20:11:37 77° 285° (WNW) 20:16:45 ?
